Location: Sternwarte ZA, Rosenfeld-Brittheim
(48.2889°N, 8.6789°E)
Time: 19:57:29

ISS - Pass Details

Date: 17 March 2018
Orbit: 403 x 406 km, 51.6° (Epoch: 23 March)

Event Time Altitude Azimuth Distance (km) Brightness Sun altitude
Exits shadow 04:22:25 46° 103° (ESE) 555 -2.9 -22.3°
Drops below altitude 10° 04:24:50 10° 110° (ESE) 1,462 -0.4 -21.9°
Sets 04:26:55 0° 111° (ESE) 2,319 0.7 -21.6°
